Regional Weather Roundup
Issued by NWS

Home | Current Version | Previous Version | Graphics & Text | Print | Product List | Glossary Off
Versions: 1 2 3 4 5 6 7 8 9 10 11 12 13 14 15 16 17 18 19 20 21 22 23 24 25 26 27 28 29 30 31 32 33 34 35 36 37 38 39 40 41 42 43 44 45 46 47 48 49 50

000
ASUS43 KIND 302009
RWRIN

WEATHER ROUNDUP FOR INDIANA
NATIONAL WEATHER SERVICE INDIANAPOLIS IN
400 PM EDT SAT AUG 30 2014

NOTE: "FAIR" INDICATES FEW OR NO CLOUDS BELOW 12,000 FEET WITH NO
SIGNIFICANT WEATHER AND/OR OBSTRUCTIONS TO VISIBILITY.

* - STATION DOES NOT REPORT WEATHER SUCH AS PRECIPITATION OR FOG.

+ - STATION NOT QUALITY CONTROLLED BY THE NATIONAL WEATHER SERVICE.
    USE DATA WITH CAUTION...ESPECIALLY DEWPOINT AND RELATIVE
    HUMIDITY OBSERVATIONS.

INZ001>003-010>013-019-020-302100-
NORTHWEST INDIANA

CITY           SKY/WX    TMP DP  RH WIND       PRES   REMARKS
GARY /AIRPORT/ PTSUNNY   82  72  69 SW13G25   29.86F
KNOX *+        CLOUDY    81  70  68 S16G22    29.88F
LA PORTE +     CLOUDY    80  71  74 SW13G18   29.89F
MICHIGAN CITY+ PTSUNNY   81  68  65 SW15G25   29.87F
MONTICELLO +   CLOUDY    81  71  71 SW16      29.91F
RENSSELAER +   PTSUNNY   82  73  74 S15G24    29.89F
VALPARAISO     CLOUDY    79  69  71 S12       29.89F

$$

LMZ046-743>745-302100-
SOUTHERN LAKE MICHIGAN

STATION/POSITION TIME  TEMP WIND        PRES
                       AIR  DIR/SP/G
                 (UTC) (F)  (DEG/KT/KT) (MB)
MICHIGAN CITY    2000   79  180/ 18/ 25   N/A

$$

INZ004-005-014>016-021>024-302100-
NORTH CENTRAL INDIANA

CITY           SKY/WX    TMP DP  RH WIND       PRES   REMARKS
GOSHEN         PTSUNNY   86  70  58 S16G25    29.89F
LOGANSPORT +   PTSUNNY   81  68  65 S14       29.93F
PERU/GRISSOM   PTSUNNY   82  74  77 SW15      29.93F
ROCHESTER +    PTSUNNY   84  72  65 S12G22    29.92F
SOUTH BEND     CLOUDY    82  70  66 SW16G28   29.88F
WARSAW +       PTSUNNY   81  70  69 SW13      29.91F

$$

INZ006>009-017-018-025>027-302100-
NORTHEAST INDIANA

CITY           SKY/WX    TMP DP  RH WIND       PRES   REMARKS
ANGOLA *+      PTSUNNY   84  70  61 SW12      29.91F
AUBURN +       PTSUNNY   86  64  48 S12G20    29.93F
FORT WAYNE     PTSUNNY   81  70  69 S17G23    29.95F
HUNTINGTON +   PTSUNNY   81  71  71 SW12G20   29.94F

$$

INZ028-029-035-036-043>045-051>053-302100-
WEST CENTRAL INDIANA

CITY           SKY/WX    TMP DP  RH WIND       PRES   REMARKS
GREENCASTLE +  CLOUDY    75  68  78 S8        29.99F
LAFAYETTE      PTSUNNY   81  70  69 SW8G20    29.92F
TERRE HAUTE    CLOUDY    79  70  74 S16G24    29.97F

$$

INZ030>032-037>040-046>048-054>057-064-065-302100-
CENTRAL INDIANA

CITY           SKY/WX    TMP DP  RH WIND       PRES   REMARKS
ANDERSON       PTSUNNY   77  68  73 S14G20    30.00F
CP ATTERBURY + CLOUDY    77  70  78 S10       30.01F
COLUMBUS       CLOUDY    77  72  83 S12       30.02F
FRANKFORT +    PTSUNNY   81  71  72 S10G17    29.97F
INDIANAPOLIS   LGT RAIN  78  69  73 S15       29.97F
-EAGLE CREEK   CLOUDY    79  68  69 S10G17    29.98F
KOKOMO *+      CLOUDY    81  70  69 SW17      29.95F
MARION +       PTSUNNY   80  68  65 SW15G22   29.97S
MT COMFORT *+  CLOUDY    77  72  83 S10G16    30.00F
SHELBYVILLE    CLOUDY    78  71  79 S14       30.00F
ZIONSVILLE +   CLOUDY    79  67  67 SW13G18   29.98F

$$

INZ033-034-041-042-049-050-058-059-302100-
EAST CENTRAL INDIANA

CITY           SKY/WX    TMP DP  RH WIND       PRES   REMARKS
MUNCIE         PTSUNNY   79  69  71 SW12      29.98F

$$

INZ060-061-067>069-081>083-085>088-302100-
SOUTHWEST INDIANA

CITY           SKY/WX    TMP DP  RH WIND       PRES   REMARKS
EVANSVILLE     LGT RAIN  76  73  91 S6        30.01F FOG
WASHINGTON +   CLOUDY    74  74  98 S8        30.00S

$$

INZ062-063-066-070>080-084-089>092-302100-
SOUTH CENTRAL AND SOUTHEAST INDIANA

CITY           SKY/WX    TMP DP  RH WIND       PRES   REMARKS
BEDFORD +      DRIZZLE   77  70  78 S3        30.02F
BLOOMINGTON    CLOUDY    77  70  79 SW9       30.01F
SEYMOUR +      CLOUDY    82  63  51 S6        30.01

$$



USA.gov is the U.S. government's official web portal to all federal, state and local government web resources and services.